INMARSAT 4-F1

Last updated on Wed May 14 2025 00:02:41 GMT+0000 (Coordinated Universal Time)

1 28628U 05009A 25133.55795281 .00000048 00000+0 00000+0 0 9996 2 28628 4.6553 42.1239 0003468 22.5661 185.8265 1.00270145 73662
UTC large
Height (km)
Speed (km/s)
/
Latitude / Longitude
Inclination (degrees)
Orbital Period (minutes)
Azimuth
Elevation
Range (km)
Doppler Factor

Next 0 passes for location: London (51.5072 / 0.1276)

Sorry there are no passes over London.